Zurück zum Katalog

DELTA 4 R/B

AktivMEO
NORAD 36586·ROCKET BODY·🇺🇸 United States

Gestartet May 28, 2010 von Cape Canaveral Space Force Station

Loading…

Nächste Überflüge (nächste 24 Stunden)

TLE

AlterndSource: Space-Track

Epoche: Aug 29, 2026, 04:17 UTC

1 36586U 10022B   26241.17916388  .00000048  00000-0  00000+0 0  9992
2 36586  53.7659 228.0846 0212581 166.7947 294.0669  1.90940443113379

Verfolge DELTA 4 R/B in Echtzeit mit AllMySat

Download on the App Store